{"data":{"norad_id":62982,"epoch":"2026-05-24T17:37:46.874784Z","epoch_age_seconds":88176,"freshness":"FRESH","line1":"1 62982U 25031B   26144.73457031  .00219898  00000+0  16633-2 0  9992","line2":"2 62982  42.9986 262.9657 0000750 305.1719  54.9078 15.70967229 74701","mean_motion":15.70967229,"eccentricity":7.5e-5,"inclination_deg":42.9986,"raan_deg":262.9657,"arg_perigee_deg":305.1719,"mean_anomaly_deg":54.9078,"bstar":0.0016633,"rev_number":7470,"period_min":91.663274282089,"perigee_km":355.62637168459,"apogee_km":356.63651195087,"semimajor_km":6734.2684418177,"source":"CELESTRAK","updated_at":"2026-05-25T13:38:19.829840Z"}}